Auburn, AL

9:39 AM CST on January 20, 2018 (GMT -0600)
Auburn-opelika-pitts

Weather History for KAUO - November, 2013

Change the Weather History Date:

Wednesday, November 27, 2013

  Actual Average Record
Temperature  
Mean Temperature 36 °F -  
Max Temperature 45 °F - 79 °F (1973)
Min Temperature 27 °F - 25 °F (1970)
Degree Days  
Heating Degree Days 29    
Month to date heating degree days 330  
Since 1 July heating degree days 366  
Moisture  
Dew Point 28 °F    
Average Humidity 74    
Maximum Humidity 93    
Minimum Humidity 42    
Precipitation  
Precipitation 0.25 in - 2.21 in (2003)
Month to date precipitation 1.80  
Year to date precipitation 41.26  
Sea Level Pressure  
Sea Level Pressure 29.96 in    
Wind  
Wind Speed 14 mph (NW)    
Max Wind Speed 21 mph    
Max Gust Speed 30 mph    
Visibility 9 miles    
Events      
T = Trace of Precipitation, MM = Missing Value Source: NWS Daily Summary

Daily Weather History Graph

Daily Weather History Graph

Search for Another Location

Airport or City:

Trip Planner

Search our weather history database for the weather conditions in past years. The results will help you decide how hot, cold, wet, or windy it might be!

Date:

Astronomy

Nov. 27, 2013 Rise Set
Actual Time 6:22 AM CST 4:36 PM CST
Civil Twilight 5:55 AM CST 5:02 PM CST
Nautical Twilight 5:25 AM CST 5:33 PM CST
Astronomical Twilight 4:55 AM CST 6:02 PM CST
Moon 12:41 AM CST (11/27) 12:57 PM CST (11/27)
Length of Visible Light 11h 07m
Length of Day
10h 13m
Waning Crescent, 31% of the Moon is Illuminated
Nov 27
Waning Crescent
Dec 2
New
Dec 9
First Quarter
Dec 17
Full
Dec 25
Last Quarter

Hourly Weather History & Observations

Time (CST) Temp. Windchill Dew Point Humidity Pressure Visibility Wind Dir Wind Speed Gust Speed Precip Events Conditions
12:15 AM 42.8 °F 35.4 °F 39.2 °F 87% 29.75 in 3.0 mi WNW 15.0 mph 20.7 mph 0.02 in   Overcast
12:35 AM 41.0 °F 33.1 °F 37.4 °F 87% 29.76 in 2.5 mi NW 15.0 mph 25.3 mph 0.03 in   Overcast
12:55 AM 39.2 °F 31.2 °F 37.4 °F 93% 29.76 in 5.0 mi NW 13.8 mph 20.7 mph 0.03 in   Overcast
1:15 AM 39.2 °F 32.0 °F 35.6 °F 87% 29.78 in 9.0 mi NW 11.5 mph - N/A   Overcast
1:35 AM 39.2 °F 30.5 °F 35.6 °F 87% 29.78 in 6.0 mi NW 16.1 mph 23.0 mph 0.01 in   Overcast
1:55 AM 39.2 °F 31.2 °F 35.6 °F 87% 29.78 in 5.0 mi NW 13.8 mph 21.9 mph 0.05 in   Overcast
2:15 AM 37.4 °F 28.9 °F 35.6 °F 93% 29.79 in 5.0 mi NW 13.8 mph 20.7 mph 0.01 in   Overcast
2:35 AM 37.4 °F 28.9 °F 35.6 °F 93% 29.80 in 7.0 mi NW 13.8 mph 19.6 mph 0.01 in   Overcast
2:55 AM 37.4 °F 28.9 °F 33.8 °F 87% 29.80 in 10.0 mi NW 13.8 mph 20.7 mph 0.03 in   Overcast
3:15 AM 37.4 °F 28.5 °F 33.8 °F 87% 29.81 in 10.0 mi NW 15.0 mph 21.9 mph 0.02 in   Overcast
3:35 AM 37.4 °F 28.5 °F 33.8 °F 87% 29.82 in 10.0 mi NW 15.0 mph 20.7 mph 0.05 in   Overcast
3:55 AM 35.6 °F 27.1 °F 33.8 °F 93% 29.84 in 10.0 mi NW 12.7 mph - 0.10 in   Overcast
4:15 AM 35.6 °F 25.9 °F 30.2 °F 81% 29.86 in 10.0 mi NW 16.1 mph 23.0 mph 0.02 in   Overcast
4:35 AM 33.8 °F 23.9 °F 30.2 °F 87% 29.86 in 10.0 mi NW 15.0 mph 19.6 mph 0.03 in   Overcast
4:55 AM 33.8 °F 23.9 °F 30.2 °F 87% 29.87 in 10.0 mi NW 15.0 mph 19.6 mph 0.03 in   Overcast
5:15 AM 33.8 °F 25.3 °F 30.2 °F 87% 29.88 in 9.0 mi NNW 11.5 mph 20.7 mph 0.01 in   Overcast
5:35 AM 33.8 °F 23.5 °F 30.2 °F 87% 29.90 in 10.0 mi NNW 16.1 mph 21.9 mph 0.01 in   Overcast
5:55 AM 33.8 °F 23.9 °F 30.2 °F 87% 29.90 in 10.0 mi NNW 15.0 mph - 0.01 in   Overcast
6:15 AM 33.8 °F 23.9 °F 28.4 °F 81% 29.92 in 10.0 mi NW 15.0 mph 20.7 mph N/A   Overcast
6:35 AM 33.8 °F 23.2 °F 28.4 °F 81% 29.93 in 10.0 mi NW 17.3 mph 21.9 mph N/A   Overcast
6:55 AM 33.8 °F 24.8 °F 28.4 °F 81% 29.94 in 10.0 mi NW 12.7 mph 21.9 mph N/A   Overcast
7:15 AM 33.8 °F 24.8 °F 28.4 °F 81% 29.96 in 10.0 mi NW 12.7 mph 23.0 mph N/A   Overcast
7:35 AM 33.8 °F 23.5 °F 28.4 °F 81% 29.97 in 10.0 mi NNW 16.1 mph 24.2 mph N/A   Overcast
7:55 AM 33.8 °F 22.2 °F 26.6 °F 75% 29.98 in 10.0 mi NNW 20.7 mph 27.6 mph N/A   Overcast
8:15 AM 33.8 °F 22.8 °F 26.6 °F 75% 29.99 in 10.0 mi NNW 18.4 mph 23.0 mph N/A   Overcast
8:35 AM 33.8 °F 22.2 °F 24.8 °F 70% 30.00 in 10.0 mi NW 20.7 mph 31.1 mph N/A   Overcast
8:55 AM 33.8 °F 23.5 °F 26.6 °F 75% 30.01 in 10.0 mi NNW 16.1 mph 28.8 mph N/A   Overcast
9:15 AM 35.6 °F 25.2 °F 24.8 °F 65% 30.01 in 10.0 mi NNW 18.4 mph 32.2 mph N/A   Overcast
9:35 AM 35.6 °F 24.2 °F 24.8 °F 65% 30.03 in 10.0 mi NNW 21.9 mph 28.8 mph N/A   Overcast
9:55 AM 35.6 °F 24.5 °F 24.8 °F 65% 30.03 in 10.0 mi NNW 20.7 mph 29.9 mph N/A   Overcast
2:35 PM 41.0 °F 32.5 °F 19.4 °F 42% 30.09 in 10.0 mi NNW 17.3 mph 25.3 mph N/A   Clear
2:55 PM 41.0 °F 32.5 °F 19.4 °F 42% 30.09 in 10.0 mi NW 17.3 mph 20.7 mph N/A   Clear
3:15 PM 39.2 °F 31.6 °F 19.4 °F 45% 30.10 in 10.0 mi NW 12.7 mph 19.6 mph N/A   Clear
3:35 PM 39.2 °F 31.2 °F 19.4 °F 45% 30.11 in 10.0 mi NW 13.8 mph 19.6 mph N/A   Clear
3:55 PM 39.2 °F 30.8 °F 17.6 °F 42% 30.12 in 10.0 mi NW 15.0 mph 20.7 mph N/A   Clear
4:15 PM 37.4 °F 30.8 °F 17.6 °F 45% 30.13 in 10.0 mi NNW 9.2 mph 19.6 mph N/A   Clear
4:35 PM 37.4 °F 30.3 °F 19.4 °F 48% 30.14 in 10.0 mi NNW 10.4 mph - N/A   Clear
4:55 PM 35.6 °F 28.6 °F 17.6 °F 48% 30.15 in 10.0 mi NNW 9.2 mph 18.4 mph N/A   Clear
6:15 PM 33.8 °F 26.4 °F 17.6 °F 52% 30.20 in 10.0 mi NNW 9.2 mph - N/A   Clear
9:35 PM 26.6 °F 20.0 °F 17.6 °F 69% 30.28 in 10.0 mi NW 5.8 mph - N/A   Clear
9:55 PM 26.6 °F 22.6 °F 17.6 °F 69% 30.29 in 10.0 mi WNW 3.5 mph - N/A   Clear